Overview Statistics Trail Chart Weather Telemetry Raw packets
 

This is the latest recevied weather packets stored in our database for station/object G4WLC-1. If no packets are shown the sender has not sent any weather packets the latest 10 day(s).

<< 78 79 80 81 82 83 84 >>
Time Temp. Humidity Pressure Rain* Wind** Luminosity Snow
1788096435 18.33° C 88% 1007.2 hPa 0.76 mm - - -
1788096135 18.33° C 89% 1007.4 hPa 0.76 mm - - -
1788095835 17.78° C 91% 1007.6 hPa 0.76 mm - - -
1788095535 17.22° C 89% 1007.7 hPa 0.76 mm - - -
1788095235 17.22° C 88% 1007.7 hPa 0.76 mm - - -
1788094935 17.22° C 86% 1007.9 hPa 0.51 mm - - -
1788094635 17.78° C 85% 1007.8 hPa 0 mm - - -
1788094335 17.78° C 85% 1007.6 hPa 0 mm - - -
1788094035 17.78° C 84% 1007.5 hPa 0 mm - - -
1788093735 18.33° C 84% 1007.6 hPa 0 mm - - -
1788093435 18.33° C 83% 1007.6 hPa 0 mm - - -
1788093135 18.89° C 80% 1007.7 hPa 0 mm - - -
1788092835 19.44° C 76% 1007.7 hPa 0 mm - - -
1788092535 19.44° C 75% 1007.5 hPa 0 mm - - -
1788092235 20° C 74% 1007.6 hPa 0 mm - - -
1788091935 20° C 73% 1007.6 hPa 0 mm - - -
1788091635 20.56° C 72% 1007.8 hPa 0 mm - - -
1788091335 21.11° C 71% 1008 hPa 0 mm - - -
1788091035 20.56° C 71% 1007.9 hPa 0 mm - - -
1788090735 20.56° C 72% 1008 hPa 0 mm - - -
1788090436 20.56° C 74% 1008.1 hPa 0 mm - - -
1788090135 20° C 73% 1008 hPa 0 mm - - -
1788089835 20° C 74% 1008 hPa 0 mm - - -
1788089536 20° C 77% 1008.1 hPa 0 mm - - -
1788089235 19.44° C 77% 1008.1 hPa 0 mm - - -

* Rain latest hour (hover to see other rain measurements)
** Current wind speed in m/s (hover to see current wind gust speed)